Погода в Онацковцах

Украина / Хмельницкая область     49°57′05″N   27°28′41″E
темп.,
°C
ветер,
м/с
пор.,
м/с
влажн.,
%
обл.,
%
осадки,
мм/ч
давл.,
гПа
погр.,
м
12 мая, ср
ср1200:00+11в38840 0.0 1017121
03:00+10в36940 0.0 1016101
06:00+9в51098100 0.0 1016332
09:00+11в79733 0.0 1016778
12:00+13в78586 0.0 10161326
15:00+14в785535 0.0 10151654
18:00+11в6769100 0.1 10151015
21:00+8в338612 0.1 101446
13 мая, чт
чт1300:00+7юв239151 0.0 101334
03:00+5вюв349431 0.0 101262
06:00+5юв379530 0.0 1010156
09:00+11юв697122 0.0 1009690
12:00+11юв71181100 0.1 1009831
15:00+10ююв81385100 0.2 1008780
18:00+12юв61285100 0.1 1006889
21:00+11ююв61389100 0.1 1007581
14 мая, пт
пт1400:00+10юв51297100 0.0 1006533
03:00+11ююв51092100 0.8 1006436
06:00+9юв379699 0.0 1006157
09:00+13ю358098 0.0 1006427
12:00+16ю4470100 0.0 1006877
15:00+15юз5777100 0.4 1007524
18:00+16юз457192 0.4 1007557
21:00+12з228525 1.1 100718
15 мая, сб
сб1500:00+10з3889100 0.0 1009159
03:00+8юз3689100 0.0 1009110
06:00+8юз389087 0.0 1010168
09:00+11юз488192 0.0 1011541
12:00+15зюз697096 0.1 10111328
15:00+16зюз576740 0.4 10111154
18:00+16з4567100 0.1 1011934
21:00+12зсз228014 0.1 101220
16 мая, вс
вс1600:00+10ссв22885 0.0 101210
03:00+9всв229170 0.0 101213
06:00+9вюв3393100 0.0 101254
09:00+14в3576100 0.0 1012330
12:00+18юв4671100 1.3 1011635
15:00+14ссз3392100 3.1 1011132
18:00+15св2386100 0.1 1010180
21:00+14вюв2286100 0.8 101034